Hourly Data Report for June 01, 2019

BORDEN AWOS
ONTARIO
Current Station Operator: DND

44°16'20.000" N
79°54'42.000" W
222.50 m
611B002
71534
YBN

Download Data

Hourly Data (June 2019)
Hourly Data Report for June 1, 2019
TIME
LST
Temp Definition
°C
Dew Point Definition
°C
Rel Hum Definition
%
Precip. Amount Definition
mm

Wind Dir Definition
10's deg

Wind Spd Definition
km/h
Visibility Definition
km
Stn Press Definition
kPa
Hmdx Definition


Wind Chill Definition


Weather Definition


00:00 13.1 13.0 99   35 6 9.7 98.19     LegendNANA
01:00 12.3 12.3 100   18 4 8.0 98.08     LegendNANA
02:00 11.6 11.6 100     0 5.6 97.98     LegendNANA
03:00 10.4 10.4 100   3 7 1.4 98.01     LegendNANA
04:00 10.4 10.4 100   1 4 4.0 98.05     LegendNANA
05:00 9.2 9.2 100   36 4 0.6 98.07     LegendNANA
06:00 10.2 10.2 100     0 2.6 98.17     LegendNANA
07:00 12.1 12.0 99   1 4 9.7 98.14     LegendNANA
08:00 13.4 12.2 92   36 6 14.5 98.16     LegendNANA
09:00 14.7 12.5 87   4 7 14.5 98.19     LegendNANA
10:00 16.3 13.1 81     0 14.5 98.17     LegendNANA
11:00 18.2 13.5 74   7 7 14.5 98.18     LegendNANA
12:00 18.9 13.6 71   11 6 14.5 98.17     LegendNANA
13:00 21.6 14.8 65   17 9 14.5 98.08 25   LegendNANA
14:00 21.9 15.2 66   5 9 14.5 97.97 26   LegendNANA
15:00 22.0 15.6 67   2 9 14.5 97.91 26   LegendNANA
16:00 17.7 15.2 85   32 11 14.5 97.96     Rain
17:00 14.8 13.9 94   34 9 9.7 98.00     LegendNANA
18:00 14.1 13.6 97   5 6 9.7 97.97     Rain
19:00 13.4 12.9 97   34 7 9.7 97.94     LegendNANA
20:00 12.5 12.4 99   36 6 9.7 97.98     LegendNANA
21:00 11.6 11.4 99   34 6 9.7 98.00     LegendNANA
22:00 11.8 11.7 99     0 8.0 98.02     LegendNANA
23:00 11.9 11.7 99     0 9.7 97.99     Rain

Notes on Data Quality.

Legend

  • E = Estimated
  • M = Missing
  • NA = Not Available*
  • [empty] = Indicates an unobserved value
Date modified: